Regional Weather Roundup
Issued by NWS Green Bay, WI

Home | Current Version | Previous Version | Text Only | Print | Product List | Glossary On
Versions: 1 2 3 4 5 6 7 8 9 10 11 12 13 14 15 16 17 18 19 20 21 22 23 24 25 26 27 28 29 30 31 32 33 34 35 36 37 38 39 40 41 42 43 44 45 46 47 48 49 50
000
ASUS43 KGRB 312010
RWRGRB

NORTH-CENTRAL AND NORTHEAST WISCONSIN REGIONAL WEATHER ROUNDUP
NATIONAL WEATHER SERVICE GREEN BAY WI
300 PM CDT THU JUL 31 2014

WIZ005-009-010>012-018-019-312100-
NORTH CENTRAL WISCONSIN

CITY           SKY/WX    TMP DP  RH WIND       PRES   REMARKS
IRONWOOD       NOT AVBL
MANITOWISH WTR PTSUNNY   75  51  43 N8        29.99S
ARBOR VITAE    PTSUNNY   80  50  35 NW6       29.99S
EAGLE RIVER    MOSUNNY   75  44  32 NW10G20   29.99R
LAND O LAKES   SUNNY     75  45  35 W8        30.00S
RHINELANDER    MOSUNNY   76  49  38 NW9       30.00S
PHILLIPS       MOSUNNY   75  54  48 NW8       29.99S
ANTIGO         SUNNY     76  51  41 NW8G16    29.99S
TOMAHAWK       MOSUNNY   75  54  46 CALM      29.99F
MERRILL        PTSUNNY   77  59  55 W7        29.98S
$$

WIZ013-073-312100-
NORTHEAST WISCONSIN

CITY           SKY/WX    TMP DP  RH WIND       PRES   REMARKS
IRON MOUNTAIN  SUNNY     80  49  33 W14G23    29.95R
MARINETTE      MOSUNNY   79  52  38 W6        29.93S
OCONTO         SUNNY     80  49  33 NW8       29.94S
$$

WIZ017-030-035>037-045-312100-
CENTRAL WISCONSIN

CITY           SKY/WX    TMP DP  RH WIND       PRES   REMARKS
MEDFORD        MOSUNNY   72  61  67 NW7G18    30.00S
WAUSAU         LGT RAIN  71  59  65 NW3       29.97S
MOSINEE        PTSUNNY   79  57  47 W14       29.99
MARSHFIELD     MOSUNNY   79  59  50 W14       30.00S
WISC RAPIDS    MOSUNNY   81  59  47 W14G21    30.00F
STEVENS POINT  PTSUNNY   77  57  50 W10G16    29.98F
WAUPACA        MOSUNNY   84  55  37 W13G20    29.97S
SHAWANO        MOSUNNY   81  51  35 NW9G16    29.96S
CLINTONVILLE   PTSUNNY   79  52  38 N9        29.96R
$$

WIZ038-039-048-051-312100-
FOX VALLEY

CITY           SKY/WX    TMP DP  RH WIND       PRES   REMARKS
NWS GREEN BAY  MOSUNNY   80  62  54 W8        29.95F
APPLETON       PTSUNNY   72  59  64 W10       29.98S
OSHKOSH        PTSUNNY   78  59  51 NW7       29.97S THUNDER
FOND DU LAC    MOSUNNY   82  58  43 W9        29.97F
$$

WIZ022-050-052-312100-
EAST CENTRAL WISCONSIN

CITY           SKY/WX    TMP DP  RH WIND       PRES   REMARKS
STURGEON BAY   MOSUNNY   77  54  44 W12       29.96F
MANITOWOC      PTSUNNY   73  62  68 SE7       29.97S
SHEBOYGAN      PTSUNNY   75  57  53 W9        29.99R
$$

LMZ563-521-522-541>543-312100-
LAKESHORE

STATION/POSITION TIME  TEMP    WIND        PRES    VSBY  WAVE
                       AIR SEA DIR/SP/G                  HT/PER
                 (UTC) (F)     (DEG/KT/KT) (MB)    (MI)  (FT/S)
SHEBOYGAN LKSHOR 2000   65     190/ 13/ 13 1015.5R
KEWAUNEE LKSHORE 2000   59     180/ 11/ 12 1014.2S
NORTHPORT PIER   2000   71     150/  8/ 14 1013.9S
N MID LAKE BUOY  2000   59 55  210/ 14/ 16 1013.6F         1/ 3
S GREEN BAY BUOY 1900   71 69  180/  6     1015.1F
SISTER BAY LKSHO 1900   73     270/  7/  7   N/A
CHAMBERS ISLAND  2000   74     190/  7/ 11 1013.9S
MENOMINEE LKSHOR 2000   72     180/  5/ 12 1014.6S
$$



USA.gov is the U.S. government's official web portal to all federal, state and local government web resources and services.